User: anonymous
Location: Caltech
(34.1382°N, 118.1253°W)
Time: 18:45:11
(UTC-07:00)
Language:

Cosmos 1606 - Orbit

View from above orbital plane
View from above orbital plane
View from above satellite
View from above satellite

Ground track
Ground track

The orbit data is extracted from the following two-line orbital elements,

1 15369U 84111A   14261.10838348  .00004953  00000-0  29592-3 0  6198
2 15369 082.5287 026.8093 0021897 125.6641 234.6632 15.10669916628688
Epoch (UTC): 18 September 2014 02:36:04
Eccentricity: 0.0021897
inclination: 82.5287°
perigee height: 519 km
apogee height: 549 km
right ascension of ascending node: 26.8093°
argument of perigee: 125.6641°
revolutions per day: 15.10669916
mean anomaly at epoch: 234.6632°
orbit number at epoch: 62868

The dashed part of the orbit path shows where the satellite is in the earth's shadow,  

DLR